EW7114 Weather Reports


time (UTC)temp
C
wind
direction
speed
KPH
gust
KPH
rain 1hr
cm
rain 24hr
cm
rain mn
cm
humidity
%
barometer
mb
20200803150119 24 177 3.2 9.7 0.00 0.00 0.00 22 1004.7
20200803144557 23 178 1.6 11.3 0.00 0.00 0.00 22 1004.8
20200803143106 22 206 4.8 9.7 0.00 0.00 0.00 22 1004.8
20200803141643 21 165 0.0 8.0 0.00 0.00 0.00 24 1004.9
20200803140200 21 170 0.0 11.3 0.00 0.00 0.00 23 1005.0
20200803134621 20 154 1.6 11.3 0.00 0.00 0.00 23 1005.0
20200803133100 17 169 1.6 8.0 0.00 0.00 0.00 24 1005.0
20200803131554 17 164 0.0 11.3 0.00 0.00 0.00 29 1004.7
20200803130050 17 202 0.0 12.9 0.00 0.00 0.00 27 1004.8
20200803124546 17 176 1.6 6.4 0.00 0.00 0.00 26 1004.7
20200803123046 18 170 4.8 9.7 0.00 0.00 0.00 25 1004.7
20200803121542 17 190 0.0 9.7 0.00 0.00 0.00 27 1004.7
20200803114522 18 178 9.7 12.9 0.00 0.00 0.00 21 1004.4
20200803113025 19 170 6.4 17.7 0.00 0.00 0.00 21 1004.4
20200803111539 19 143 0.0 9.7 0.00 0.00 0.00 25 1004.3
20200803110029 18 140 8.0 14.5 0.00 0.00 0.00 25 1004.2
20200803104536 15 138 6.4 12.9 0.00 0.00 0.00 30 1004.1
20200803103034 12 149 1.6 8.0 0.00 0.00 0.00 37 1003.9
20200803101506 11 145 0.0 4.8 0.00 0.00 0.00 44 1003.8
20200803100003 10 144 3.2 12.9 0.00 0.00 0.00 41 1003.6
20200803094502 11 172 0.0 8.0 0.00 0.00 0.00 42 1003.5
20200803093146 11 132 0.0 11.3 0.00 0.00 0.00 40 1003.3
20200803091613 12 149 0.0 8.0 0.00 0.00 0.00 44 1003.3
20200803090240 13 199 0.0 8.0 0.00 0.00 0.00 40 1003.2
20200803084710 12 124 0.0 1.6 0.00 0.00 0.00 44 1003.3
20200803083232 13 182 0.0 1.6 0.00 0.00 0.00 41 1003.3
20200803081708 13 212 0.0 0.0 0.00 0.00 0.00 40 1003.4
20200803080209 12 212 0.0 1.6 0.00 0.00 0.00 41 1003.3
20200803074617 14 132 0.0 8.0 0.00 0.00 0.00 36 1003.1
20200803073121 13 132 0.0 0.0 0.00 0.00 0.00 43 1003.6
20200803071655 13 130 0.0 0.0 0.00 0.00 0.00 48 1003.2
20200803070128 13 130 0.0 0.0 0.00 0.00 0.00 41 1003.1
20200803064631 14 130 0.0 0.0 0.00 0.00 0.00 43 1003.0
20200803063125 15 130 0.0 0.0 0.00 0.00 0.00 38 1002.8
20200803061547 15 130 0.0 0.0 0.00 0.00 0.00 36 1002.7
20200803060038 15 130 0.0 0.0 0.00 0.00 0.00 38 1002.6
20200803054614 16 130 0.0 3.2 0.00 0.00 0.00 37 1002.7
20200803053113 17 130 0.0 4.8 0.00 0.00 0.00 35 1002.8
20200803051549 18 130 0.0 8.0 0.00 0.00 0.00 30 1002.7
20200803050037 19 130 0.0 0.0 0.00 0.00 0.00 33 1002.5
20200803044602 20 130 0.0 6.4 0.00 0.00 0.00 26 1002.5
20200803043217 20 130 0.0 0.0 0.00 0.00 0.00 25 1002.4
20200803041601 20 130 0.0 0.0 0.00 0.00 0.00 25 1002.3
20200803040054 21 130 0.0 3.2 0.00 0.00 0.00 24 1002.2
20200803034532 26 282 0.0 8.0 0.00 0.00 0.00 20 1002.1
20200803033123 26 281 4.8 12.9 0.00 0.00 0.00 18 1001.9
20200803031549 27 286 6.4 12.9 0.00 0.00 0.00 18 1001.9
20200803030054 27 292 0.0 1.6 0.00 0.00 0.00 18 1001.9
20200803024550 28 294 1.6 14.5 0.00 0.00 0.00 16 1002.0
20200803023115 30 302 0.0 12.9 0.00 0.00 0.00 16 1002.1
20200803021533 32 294 9.7 16.1 0.00 0.00 0.00 14 1002.0
20200803020121 33 311 4.8 16.1 0.00 0.00 0.00 15 1001.9
20200803014555 33 317 8.0 17.7 0.00 0.00 0.00 14 1002.0
20200803013035 34 313 8.0 16.1 0.00 0.00 0.00 13 1001.9
20200803011553 35 313 12.9 19.3 0.00 0.00 0.00 14 1002.0
20200803010035 35 313 8.0 17.7 0.00 0.00 0.00 13 1002.0
20200803004537 36 360 9.7 17.7 0.00 0.00 0.00 12 1002.1
20200803003027 35 335 12.9 20.9 0.00 0.00 0.00 12 1002.2
20200803001529 36 321 11.3 20.9 0.00 0.00 0.00 12 1002.3
20200803000016 36 318 12.9 20.9 0.00 0.00 0.00 12 1002.5
20200802234514 36 307 14.5 20.9 0.00 0.00 0.00 12 1002.5
20200802233022 35 320 11.3 22.5 0.00 0.00 0.00 12 1002.5
20200802231531 35 328 8.0 19.3 0.00 0.00 0.00 13 1002.5
20200802230010 35 323 9.7 19.3 0.00 0.00 0.00 13 1002.6
20200802224506 35 332 6.4 19.3 0.00 0.00 0.00 14 1002.6
20200802223009 35 339 9.7 19.3 0.00 0.00 0.00 12 1002.5
20200802221505 36 332 8.0 20.9 0.00 0.00 0.00 11 1002.5
20200802220002 36 341 11.3 24.1 0.00 0.00 0.00 12 1002.6
20200802214640 36 321 16.1 37.0 0.00 0.00 0.00 13 1002.7
20200802213158 36 242 0.0 9.7 0.00 0.00 0.00 9 1002.8
20200802211647 36 182 3.2 22.5 0.00 0.00 0.00 11 1003.1
20200802210217 37 294 4.8 8.0 0.00 0.00 0.00 8 1003.3
20200802204725 37 207 3.2 14.5 0.00 0.00 0.00 8 1003.4
20200802203119 37 141 6.4 22.5 0.00 0.00 0.00 8 1003.7
20200802201605 37 143 0.0 19.3 0.00 0.00 0.00 9 1003.7
20200802200110 37 141 4.8 24.1 0.00 0.00 0.00 8 1004.1
20200802194551 37 160 8.0 25.7 0.00 0.00 0.00 8 1004.3
20200802193206 36 119 9.7 24.1 0.00 0.00 0.00 8 1004.5
20200802191632 36 96 16.1 24.1 0.00 0.00 0.00 8 1004.7
20200802190029 36 111 17.7 27.4 0.00 0.00 0.00 9 1004.8
20200802184526 36 109 6.4 14.5 0.00 0.00 0.00 9 1005.0
20200802183116 35 145 9.7 17.7 0.00 0.00 0.00 8 1005.2
20200802181523 35 154 4.8 20.9 0.00 0.00 0.00 8 1005.3
20200802180032 35 175 6.4 14.5 0.00 0.00 0.00 9 1005.5
20200802174531 34 217 0.0 14.5 0.00 0.00 0.00 11 1005.6
20200802173021 33 126 8.0 12.9 0.00 0.00 0.00 11 1005.8
20200802171507 32 173 8.0 17.7 0.00 0.00 0.00 13 1005.8
20200802170016 32 211 1.6 12.9 0.00 0.00 0.00 13 1005.9
20200802164653 31 163 8.0 17.7 0.00 0.00 0.00 14 1006.1
20200802163118 30 163 6.4 12.9 0.00 0.00 0.00 15 1006.2
20200802161644 30 161 8.0 16.1 0.00 0.00 0.00 15 1006.4
20200802160113 28 146 6.4 11.3 0.00 0.00 0.00 18 1006.5
20200802154732 26 164 0.0 0.0 0.00 0.00 0.00 26 1006.7
20200802153219 23 164 0.0 0.0 0.00 0.00 0.00 30 1006.8
20200802151554 21 164 0.0 0.0 0.00 0.00 0.00 33 1007.1